TOURFACTS.DK  
Stats and Facts from Tour de France.

Tour de France 2018 starts in 316 days
  Riders   Stages   Teams   Summits   Yearly  


 
Search by year

 2017 - St. 21:  14824 starters.
  5131 different riders.
  634 teams.
  2232 stages.
  454 restdays.
  439589.60 km.
  5653 abandonnees.


Top 3
Christopher Froome86:20:55
Rigoberto Uran86:21:49
Romain Bardet86:23:15
Warren Barguil169 pt.
Primoz Roglic80 pt.
Thomas De Gendt64 pt.
Michael Matthews359 pt.
André Greipel234 pt.
Edvald Boasson Hagen220 pt.
Simon Yates86:27:09
Louis Meintjes86:29:15
Emanuel Buchmann86:54:16
Facts from Tour de France 1938
  |   Stages.  |   Stage winners.  |   Days in yellow  |   Average speed.  |   Route.  |   Teams.  |   All riders.  |   Rookies.  |   Withdrawls.  |  

  |   GC.  |   Polka  |   Green  |   White  |   Summits. (In tour)  |   Summits. (Points)  |   Miscellaneous.  |  

Stage 9 on 14 - 07 - 1938
         Owning:    Félicien Vervaecke    
Pick a stage:  1 2 3 4a 4b 4c 5 6a 6b 7 8 9 10a 10b 10c 11 12 13 14 15 16 17a 17b 18 19 20a 20b 20c 21
  LuchonPerpignan | Dist: 260.00 km.
Cat: Col de Portet-d'AspetITAGino Bartali
10 points
 

Average speed for all riders in stage:  35,753 km./hr.
    Place:Name:Team:Time:Km/h:
FRAJean FréchautFRAFrance07:08:15  +  00:00:00=36,427 
ITAEnrico MolloITAItaly07:08:15  +  00:00:00=36,427 
FRAAntonin MagneFRAFrance07:09:05  +  00:00:50=36,357 
4 ESPJulián BerrenderoESPSpain07:09:05  +  00:00:50=36,357 
5 BELJules LowieBELBelgium07:09:05  +  00:00:50=36,357 
6 NEDAntoon Van SchendelNLDHolland07:10:32  +  00:02:17=36,234 
7 FRAYvan MarieFRACadets07:10:32  +  00:02:17=36,234 
8 ITAGlauco ServadeiITAItaly07:11:02  +  00:02:47=36,192 
9 BELConstant LauwersBELBelgium07:11:02  +  00:02:47=36,192 
10 ITAGino BartaliITAItaly07:11:02  +  00:02:47=36,192 
11 BELSylvère MaesBELBelgium07:11:02  +  00:02:47=36,192 
12 BELMarcel KintBELBelgium07:11:02  +  00:02:47=36,192 
13 BELFélicien VervaeckeBELBelgium07:11:02  +  00:02:47=36,192 
14 BELAlbertin DisseauxBELBelgium07:11:02  +  00:02:47=36,192 
15 BELEmile Masson jr.BELBelgium07:11:02  +  00:02:47=36,192 
16 BELEdward VissersBELBelgium07:11:02  +  00:02:47=36,192 
17 BELFrançois NeuvilleBELBelgium07:11:02  +  00:02:47=36,192 
18 ITAVasco BergamaschiITAItaly07:11:02  +  00:02:47=36,192 
19 FRAJules RossiITAItaly07:11:02  +  00:02:47=36,192 
20 ITAMario ViciniITAItaly07:11:02  +  00:02:47=36,192 
21 ITAGiordano CotturITAItaly07:11:02  +  00:02:47=36,192 
22 ITALuigi IntrozziITAItaly07:11:02  +  00:02:47=36,192 
23 ITAGiuseppe MartanoITAItaly07:11:02  +  00:02:47=36,192 
24 ITASettimo SimoniniITAItaly07:11:02  +  00:02:47=36,192 
25 ITANello TroggiITAItaly07:11:02  +  00:02:47=36,192 
26 FRAAuguste MalletFRAFrance07:11:02  +  00:02:47=36,192 
27 FRAMarcel LaurentFRAFrance07:11:02  +  00:02:47=36,192 
28 FRAPierre JaminetFRAFrance07:11:02  +  00:02:47=36,192 
29 FRAGeorges NaisseFRAFrance07:11:02  +  00:02:47=36,192 
30 FRAVictor CossonFRAFrance07:11:02  +  00:02:47=36,192 
31 FRAJean-Marie GoasmatFRAFrance07:11:02  +  00:02:47=36,192 
32 ESPMariano CañardoESPSpain07:11:02  +  00:02:47=36,192 
33 ESPRafael RamosESPSpain07:11:02  +  00:02:47=36,192 
34 SUITheo PerretCHESwitzerland07:11:02  +  00:02:47=36,192 
35 FRAMathias ClemensLUXLuxembourg07:11:02  +  00:02:47=36,192 
36 FRAPierre ClemensLUXLuxembourg07:11:02  +  00:02:47=36,192 
37 LUXArsène MerschLUXLuxembourg07:11:02  +  00:02:47=36,192 
38 SUIRaymond LouviotFRACadets07:11:02  +  00:02:47=36,192 
39 FRARaoul LesueurFRACadets07:11:02  +  00:02:47=36,192 
40 FRAFabien GalateauFRACadets07:11:02  +  00:02:47=36,192 
41 FRARobert TanneveauFRACadets07:11:02  +  00:02:47=36,192 
42 FRARobert OubronFRACadets07:11:02  +  00:02:47=36,192 
43 FRAJean FontenayFRACadets07:11:02  +  00:02:47=36,192 
44 FRARaymond PassatFRACadets07:11:02  +  00:02:47=36,192 
45 ITAOreste BernardoniFRABluets07:11:02  +  00:02:47=36,192 
46 FRAJoseph GoutorbeFRABluets07:11:02  +  00:02:47=36,192 
47 ITADante GianelloFRABluets07:11:02  +  00:02:47=36,192 
48 FRACamille LeroyFRABluets07:11:02  +  00:02:47=36,192 
49 ITAPierre SpaperiFRABluets07:11:02  +  00:02:47=36,192 
50 FRAGaston GrimbertFRABluets07:11:02  +  00:02:47=36,192 
51 GEROtto WeckerlingDEUGermany07:11:02  +  00:02:47=36,192 
52 FRAPierre GallienFRAFrance07:12:05  +  00:03:50=36,104 
53 NEDTheo MiddelkampNLDHolland07:15:08  +  00:06:53=35,851 
54 FRAAndré LeducqFRACadets07:19:07  +  00:10:52=35,526 
55 GERJosef ArentsDEUGermany07:19:07  +  00:10:52=35,526 
56 SUIBruno CariniFRACadets07:20:57  +  00:12:42=35,378 
57 FRALucien Le GuevelFRABluets07:20:57  +  00:12:42=35,378 
58 LUXFrançois NeuensLUXLuxembourg07:20:57  +  00:12:42=35,378 
59 GERReinhold WendelDEUGermany07:21:13  +  00:12:58=35,357 
60 ITAAldo BiniITAItaly07:28:32  +  00:20:17=34,780 
61 ESPJacques AlzineESPSpain07:29:40  +  00:21:25=34,692 
62 LUXJean MajerusLUXLuxembourg07:29:40  +  00:21:25=34,692 
63 FRAAlbert BourlonFRABluets07:29:40  +  00:21:25=34,692 
64 SUIPaul EgliCHESwitzerland07:29:40  +  00:21:25=34,692 
65 SUIEdgar HehlenCHESwitzerland07:29:40  +  00:21:25=34,692 
66 SUIAlbert KnuttiCHESwitzerland07:29:40  +  00:21:25=34,692 
67 GERKarl HeideDEUGermany07:40:22  +  00:32:07=33,886 
68 GERHerbert HauswaldDEUGermany07:45:44  +  00:37:29=33,496 
69 BELÉloi MeulenbergBELBelgium07:45:44  +  00:37:29=33,496 
70 NEDJanus HellemonsNLDHolland07:45:44  +  00:37:29=33,496 
71 BELRene WalschotBELBelgium07:45:44  +  00:37:29=33,496 
72 LUXChristophe DidierLUXLuxembourg07:45:44  +  00:37:29=33,496 

Withdrawls: 13
 
Rider
Team
Reason
10  BELTheo PirmezBELBelgiumDisqualified
25  GERFritz SchellerDEUGermanyDid not finish
29  GERHeinz WenglerDEUGermanyDid not finish
33  GERPaul LanghoffDEUGermanyDid not finish
46  FRAGeorges SpeicherFRAFranceDid not finish
53  ESPEmiliano AlvarezESPSpainDisqualified
56  BELRené PédroliCHESwitzerlandDisqualified
59  SUIBruno BesanaCHESwitzerlandDid not finish
64  NEDJef DominicusNLDHollandDisqualified
77  FRASauveur DucazeauxFRACadetsDisqualified
88  FRAAndre LeforgeFRABluetsDisqualified
91  FRAEloi TassinFRABluetsDid not finish
95  FRALucien LamureFRABluetsDisqualified

Todays birthdays.

1924  Siro Bianchi
1930  Renzo Accordi
1933  Manfred Donike
1952  Cristóbal Pérez
1958  Rafaël Tolosa
1960  Hubert Seiz
1964  Johan Bruyneel
1969  Enrico Poitschke